Weather History for Bad Axe, MI

Change the Weather History Date:

Wednesday, April 3, 2013

  Actual Average (KP58) Record (KP58)
Temperature  
Mean Temperature 30 °F -  
Max Temperature 38 °F 41 °F 59 °F (2006)
Min Temperature 22 °F 30 °F 26 °F (2013)
Degree Days  
Heating Degree Days 35    
Moisture  
Dew Point 16 °F    
Average Humidity 58    
Maximum Humidity 74    
Minimum Humidity 40    
Precipitation  
Precipitation 0.00 in - - ()
Sea Level Pressure  
Sea Level Pressure 30.32 in    
Wind  
Wind Speed 8 mph (WNW)    
Max Wind Speed 18 mph    
Max Gust Speed 23 mph    
Visibility 10 miles    
Events      
Averages and records for this station are not official NWS values.
T = Trace of Precipitation, MM = Missing Value Source: NWS Daily Summary

Daily Weather History Graph

Daily Weather History Graph

Search for Another Location

Airport:

Trip Planner

Search our weather history database for the weather conditions in past years. The results will help you decide how hot, cold, wet, or windy it might be!

Date:

Astronomy

Apr. 03, 2013 Rise Set
Actual Time 7:09 AM EDT 8:01 PM EDT
Civil Twilight 6:40 AM EDT 8:30 PM EDT
Nautical Twilight 6:05 AM EDT 9:05 PM EDT
Astronomical Twilight 5:29 AM EDT 9:41 PM EDT
Moon 3:01 AM EDT (4/3) 1:00 PM EDT (4/3)
Length of Visible Light 13h 50m
Length of Day
12h 52m
Last Quarter, 45% of the Moon is Illuminated
Apr 3
Last Quarter
Apr 10
New
Apr 18
First Quarter
Apr 25
Full
May 2
Last Quarter

Hourly Weather History & Observations

Time (EDT) Temp. Windchill Dew Point Humidity Pressure Visibility Wind Dir Wind Speed Gust Speed Precip Events Conditions
12:13 AM 26.6 °F 20.0 °F 15.8 °F 64% 30.20 in 10.0 mi NW 5.8 mph - N/A   Clear
12:34 AM 26.2 °F 19.6 °F 16.5 °F 67% 30.20 in 10.0 mi WNW 5.8 mph - N/A   Clear
12:53 AM 26.1 °F 19.4 °F 16.5 °F 67% 30.20 in 10.0 mi WNW 5.8 mph - N/A   Clear
1:13 AM 25.7 °F 19.0 °F 16.5 °F 68% 30.21 in 10.0 mi WNW 5.8 mph - N/A   Clear
1:34 AM 26.2 °F 18.6 °F 16.7 °F 67% 30.21 in 10.0 mi NW 6.9 mph - N/A   Clear
1:53 AM 26.4 °F 18.9 °F 17.1 °F 68% 30.22 in 10.0 mi WNW 6.9 mph - N/A   Clear
2:13 AM 26.1 °F 17.6 °F 17.4 °F 70% 30.22 in 10.0 mi WNW 8.1 mph - N/A   Clear
2:34 AM 25.7 °F 16.4 °F 16.5 °F 68% 30.22 in 10.0 mi NW 9.2 mph - N/A   Clear
2:53 AM 25.5 °F 16.9 °F 15.4 °F 66% 30.22 in 10.0 mi NW 8.1 mph - N/A   Clear
3:13 AM 24.8 °F 15.3 °F 15.4 °F 68% 30.22 in 10.0 mi NW 9.2 mph - N/A   Clear
3:33 AM 24.6 °F 14.4 °F 14.9 °F 67% 30.22 in 10.0 mi NNW 10.4 mph - N/A   Clear
3:53 AM 24.1 °F 13.7 °F 14.2 °F 66% 30.23 in 10.0 mi NNW 10.4 mph - N/A   Clear
4:14 AM 23.7 °F 14.0 °F 12.9 °F 63% 30.23 in 10.0 mi NNW 9.2 mph - N/A   Clear
4:33 AM 23.5 °F 13.7 °F 13.8 °F 66% 30.23 in 10.0 mi NNW 9.2 mph - N/A   Clear
4:54 AM 23.4 °F 14.3 °F 13.8 °F 67% 30.24 in 10.0 mi NW 8.1 mph - N/A   Clear
5:13 AM 23.0 °F 14.7 °F 14.2 °F 69% 30.25 in 10.0 mi WNW 6.9 mph - N/A   Clear
5:33 AM 22.8 °F 15.5 °F 14.5 °F 71% 30.25 in 10.0 mi WNW 5.8 mph - N/A   Clear
5:54 AM 22.6 °F 15.3 °F 14.5 °F 71% 30.25 in 10.0 mi NW 5.8 mph - N/A   Clear
6:13 AM 22.5 °F 15.1 °F 14.9 °F 73% 30.26 in 10.0 mi WNW 5.8 mph - N/A   Clear
6:33 AM 22.1 °F 15.9 °F 14.9 °F 74% 30.27 in 10.0 mi WNW 4.6 mph - N/A   Clear
6:54 AM 22.3 °F 13.9 °F 15.3 °F 74% 30.27 in 10.0 mi WNW 6.9 mph - N/A   Clear
7:13 AM 23.0 °F 14.7 °F 15.8 °F 74% 30.28 in 10.0 mi WNW 6.9 mph - N/A   Clear
7:34 AM 24.4 °F 15.6 °F 16.7 °F 72% 30.28 in 10.0 mi NW 8.1 mph - N/A   Mostly Cloudy
7:54 AM 25.5 °F 14.9 °F 17.6 °F 72% 30.29 in 10.0 mi NW 11.5 mph - N/A   Overcast
8:13 AM 25.5 °F 14.3 °F 16.5 °F 69% 30.30 in 10.0 mi NW 12.7 mph 21.9 mph N/A   Mostly Cloudy
8:34 AM 25.5 °F 12.0 °F 16.7 °F 69% 30.31 in 10.0 mi NW 18.4 mph 23.0 mph N/A   Mostly Cloudy
8:54 AM 26.4 °F 15.0 °F 16.7 °F 67% 30.32 in 10.0 mi NW 13.8 mph 23.0 mph N/A   Scattered Clouds
9:13 AM 27.1 °F 14.9 °F 16.5 °F 64% 30.32 in 10.0 mi NNW 16.1 mph - N/A   Scattered Clouds
9:34 AM 27.5 °F 15.0 °F 14.9 °F 59% 30.33 in 10.0 mi NNW 17.3 mph 23.0 mph N/A   Scattered Clouds
9:53 AM 27.7 °F 16.1 °F 12.9 °F 54% 30.34 in 10.0 mi NNW 15.0 mph 23.0 mph N/A   Clear
10:14 AM 28.6 °F 16.0 °F 12.0 °F 50% 30.35 in 10.0 mi NNW 18.4 mph - N/A   Scattered Clouds
10:34 AM 29.7 °F 18.2 °F 12.9 °F 50% 30.35 in 10.0 mi North 16.1 mph 21.9 mph N/A   Scattered Clouds
10:53 AM 29.8 °F 19.8 °F 13.3 °F 50% 30.36 in 10.0 mi North 12.7 mph - N/A   Mostly Cloudy
11:14 AM 28.2 °F 17.7 °F 14.0 °F 55% 30.37 in 10.0 mi NNW 12.7 mph 17.3 mph N/A   Overcast
11:34 AM 29.1 °F 17.5 °F 14.7 °F 55% 30.38 in 10.0 mi NNW 16.1 mph 19.6 mph N/A   Overcast
12:14 PM 29.8 °F 22.2 °F 13.5 °F 51% 30.39 in 10.0 mi NNW 8.1 mph 19.6 mph N/A   Mostly Cloudy
12:34 PM 31.3 °F 20.7 °F 14.0 °F 49% 30.39 in 10.0 mi NNW 15.0 mph 18.4 mph N/A   Scattered Clouds
12:53 PM 31.6 °F 22.1 °F 12.6 °F 45% 30.40 in 10.0 mi NNW 12.7 mph 20.7 mph N/A   Scattered Clouds
1:14 PM 32.0 °F 21.2 °F 12.7 °F 45% 30.40 in 10.0 mi NW 16.1 mph 20.7 mph N/A   Clear
1:34 PM 32.9 °F 23.7 °F 13.1 °F 44% 30.40 in 10.0 mi WNW 12.7 mph 18.4 mph N/A   Scattered Clouds
1:53 PM 32.7 °F 23.4 °F 12.6 °F 43% 30.39 in 10.0 mi NW 12.7 mph 18.4 mph N/A   Scattered Clouds
2:14 PM 34.0 °F 25.5 °F 13.8 °F 44% 30.39 in 10.0 mi WNW 11.5 mph 18.4 mph N/A   Scattered Clouds
2:34 PM 34.7 °F 26.4 °F 14.5 °F 44% 30.39 in 10.0 mi West 11.5 mph 20.7 mph N/A   Clear
2:53 PM 34.7 °F 26.4 °F 14.0 °F 43% 30.39 in 10.0 mi West 11.5 mph 16.1 mph N/A   Clear
3:14 PM 35.2 °F 26.6 °F 14.2 °F 42% 30.38 in 10.0 mi West 12.7 mph 17.3 mph N/A   Scattered Clouds
3:34 PM 35.6 °F 28.6 °F 14.2 °F 42% 30.38 in 10.0 mi NW 9.2 mph 17.3 mph N/A   Scattered Clouds
3:53 PM 36.7 °F 29.4 °F 14.7 °F 41% 30.38 in 10.0 mi WNW 10.4 mph 18.4 mph N/A   Clear
4:14 PM 36.5 °F 28.7 °F 14.5 °F 41% 30.37 in 10.0 mi NW 11.5 mph 16.1 mph N/A   Clear
4:33 PM 37.0 °F 29.3 °F 14.9 °F 40% 30.37 in 10.0 mi WNW 11.5 mph - N/A   Clear
4:54 PM 37.4 °F 31.4 °F 15.3 °F 41% 30.37 in 10.0 mi West 8.1 mph - N/A   Clear
5:14 PM 38.1 °F 31.7 °F 15.6 °F 40% 30.36 in 10.0 mi West 9.2 mph - N/A   Clear
5:33 PM 37.6 °F 30.5 °F 15.4 °F 41% 30.37 in 10.0 mi West 10.4 mph - N/A   Clear
5:54 PM 38.3 °F 30.9 °F 16.3 °F 41% 30.36 in 10.0 mi West 11.5 mph - N/A   Clear
6:14 PM 38.3 °F 31.9 °F 16.5 °F 41% 30.37 in 10.0 mi West 9.2 mph - N/A   Clear
6:33 PM 37.6 °F 32.3 °F 15.1 °F 40% 30.37 in 10.0 mi WNW 6.9 mph - N/A   Clear
6:54 PM 37.6 °F 33.1 °F 15.3 °F 40% 30.37 in 10.0 mi West 5.8 mph - N/A   Clear
7:14 PM 37.0 °F 34.5 °F 15.3 °F 41% 30.36 in 10.0 mi SW 3.5 mph - N/A   Clear
7:33 PM 36.0 °F 33.3 °F 17.2 °F 47% 30.36 in 10.0 mi WSW 3.5 mph - N/A   Clear
7:54 PM 34.9 °F 30.8 °F 16.3 °F 47% 30.35 in 10.0 mi SW 4.6 mph - N/A   Clear
8:14 PM 32.7 °F 29.6 °F 19.6 °F 58% 30.35 in 10.0 mi SSW 3.5 mph - N/A   Clear
8:33 PM 31.5 °F 26.8 °F 20.3 °F 63% 30.35 in 10.0 mi SSW 4.6 mph - N/A   Clear
8:54 PM 31.6 °F 26.0 °F 21.6 °F 66% 30.35 in 10.0 mi SSW 5.8 mph - N/A   Clear
9:14 PM 31.1 °F 27.7 °F 22.1 °F 69% 30.35 in 10.0 mi South 3.5 mph - N/A   Clear
9:34 PM 29.5 °F 25.9 °F 20.1 °F 68% 30.35 in 10.0 mi South 3.5 mph - N/A   Clear
9:54 PM 30.6 °F 27.1 °F 21.4 °F 69% 30.35 in 10.0 mi SSW 3.5 mph - N/A   Clear
10:14 PM 29.3 °F - 21.6 °F 73% 30.34 in 10.0 mi Calm Calm - N/A   Clear
10:34 PM 28.9 °F 25.2 °F 20.3 °F 70% 30.34 in 10.0 mi South 3.5 mph - N/A   Clear
10:54 PM 28.2 °F - 20.7 °F 73% 30.34 in 10.0 mi Calm Calm - N/A   Clear
11:14 PM 28.4 °F 23.3 °F 19.9 °F 71% 30.33 in 10.0 mi South 4.6 mph - N/A   Clear
11:34 PM 28.4 °F 23.3 °F 19.8 °F 70% 30.33 in 10.0 mi South 4.6 mph - N/A   Clear
11:53 PM 27.5 °F 21.1 °F 19.8 °F 73% 30.32 in 10.0 mi South 5.8 mph - N/A   Clear